Content
SEND FEEDBACK

Daily
Averages
Monthly
Summary
Denmark

BILLUND, DENMARK


Home > Europe > Denmark
Elevation: 216 feet     Latitude: 55 44N     Longitude: 009 09E

WEATHER
 
SELECT A DAY
Number of Records: 295,318;   Date Range: 7/1/96 - 9/15/14
 
SHARE

PRINT THIS DATA

[ ← Previous Day ]
WEATHER ALMANAC - JANUARY 31, 2013
[ Next Day → ]
[ °C ]   °F
Weather ElementAverageHighLow
Temperature40 °F42.8 °F (4:20 am)37.4 °F (3:20 pm)
Dewpoint37.2 °F39.2 °F (2:50 am)33.8 °F (1:50 pm)
Humidity89.9 %100 % (11:50 pm)76 % (1:50 pm)
Barometer29.35 in29.47 in (10:50 am)29.21 in (12:50 am)
Wind Speed17.7 mph35.7 mph (4:20 am)
Wind Gust54.1 mph (3:20 am)
Weather ElementAverage
Visibility5 mi
Wind DirectionWSW (256.4 °)

Weather ElementTotal
Precipitation---
Heating Degree Days24.9 (Base 65)
Averaged from 47 records on January 31, 2013
WEATHER CONDITIONS BREAKOUT
WIND DIRECTION BREAKOUT
WEATHER BY HOUR - JANUARY 31, 2013
[ °C ]   °F
Local TimeTemperatureDewpointHumidityBarometerVisibilityWind DirectionWind SpeedGust SpeedPrecipitationEventsConditions
12:50 AM41.0 °F37.4 °F87 %29.21 in5.0 miWSW (250°)28.8 mph46.0 mphRainLight Rain Showers
1:20 AM41.0 °F35.6 °F81 %29.21 in5.0 miWSW (250°)32.2 mph51.8 mphMostly Cloudy
1:50 AM41.0 °F37.4 °F87 %29.21 in3.7 miWest (260°)34.5 mph51.8 mphRainLight Rain Showers
2:20 AM41.0 °F37.4 °F87 %29.21 in3.1 miWest (260°)32.2 mph43.7 mphRainLight Rain Showers
2:50 AM41.0 °F39.2 °F93 %29.24 in3.7 miWest (260°)31.1 mphRainLight Rain Showers
3:20 AM41.0 °F37.4 °F87 %29.24 in3.7 miWest (260°)32.2 mph54.1 mphRainLight Rain Showers
3:50 AM41.0 °F39.2 °F93 %29.24 in3.1 miWest (260°)32.2 mph51.8 mphRainLight Rain Showers
4:20 AM42.8 °F37.4 °F81 %29.24 in4.3 miWest (260°)35.7 mph54.1 mphRainLight Rain Showers
4:50 AM41.0 °F39.2 °F93 %29.27 in2.8 miWest (270°)35.7 mph54.1 mphRainLight Rain Showers
5:20 AM41.0 °F37.4 °F87 %29.30 in3.7 miWest (270°)33.4 mph47.2 mphRainLight Rain Showers
5:50 AM41.0 °F39.2 °F93 %29.30 in3.7 miWest (270°)34.5 mph50.6 mphRainLight Rain Showers
6:20 AM41.0 °F39.2 °F93 %29.33 in3.7 miWest (270°)31.1 mph43.7 mphRainLight Rain Showers
6:50 AM41.0 °F39.2 °F93 %29.36 in5.0 miWest (270°)31.1 mph52.9 mphRainLight Rain Showers
7:20 AM41.0 °F39.2 °F93 %29.39 in5.0 miWest (280°)27.6 mph42.6 mphRainLight Rain Showers
7:50 AM41.0 °F37.4 °F87 %29.42 in5.0 miWest (270°)29.9 mph49.5 mphMostly Cloudy
8:20 AM41.0 °F37.4 °F87 %29.42 in6.2 miWest (280°)25.3 mph36.8 mphMostly Cloudy
8:50 AM41.0 °F37.4 °F87 %29.44 in6.2 miWest (270°)23.0 mphMostly Cloudy
9:20 AM41.0 °F37.4 °F87 %29.44 in6.2 miWest (270°)21.9 mphMostly Cloudy
9:50 AM41.0 °F37.4 °F87 %29.44 in6.2 miWest (260°)21.9 mphScattered Clouds
10:20 AM41.0 °F37.4 °F87 %29.44 in6.2 miWest (260°)21.9 mphScattered Clouds
10:50 AM41.0 °F37.4 °F87 %29.47 in6.2 miWest (260°)16.1 mphMostly Cloudy
11:20 AM41.0 °F37.4 °F87 %29.47 in6.2 miWest (260°)18.4 mphMostly Cloudy
11:50 AM41.0 °F37.4 °F87 %29.47 in6.2 miWSW (240°)18.4 mphMostly Cloudy
12:20 PM41.0 °F37.4 °F87 %29.44 in6.2 miWSW (250°)17.3 mphMostly Cloudy
12:50 PM41.0 °F37.4 °F87 %29.44 in6.2 miWSW (250°)17.3 mphMostly Cloudy
1:20 PM41.0 °F37.4 °F87 %29.42 in6.2 miWSW (240°)13.8 mphMostly Cloudy
1:50 PM41.0 °F33.8 °F76 %29.42 in6.2 miWest (260°)15.0 mphRainLight Rain
2:20 PM39.2 °F35.6 °F87 %29.39 in6.2 miWest (260°)6.9 mphRainLight Rain
2:50 PM39.2 °F35.6 °F87 %29.39 in6.2 miWSW (250°)4.6 mphRainLight Rain
3:20 PM37.4 °F35.6 °F93 %29.36 in6.2 miWSW (240°)9.2 mphRainLight Rain
3:50 PM37.4 °F35.6 °F93 %29.36 in6.2 miWSW (240°)4.6 mphRainLight Rain
4:20 PM37.4 °F35.6 °F93 %29.36 in6.2 miSW (230°)3.5 mphMostly Cloudy
4:50 PM37.4 °F35.6 °F93 %29.33 in6.2 miSW (220°)4.6 mphMostly Cloudy
5:20 PM37.4 °F35.6 °F93 %29.33 in6.2 miSW (220°)4.6 mphMostly Cloudy
5:50 PM37.4 °F35.6 °F93 %29.33 in5.0 miSW (220°)3.5 mphMostly Cloudy
6:20 PM39.2 °F37.4 °F93 %29.33 in5.0 miWSW (240°)4.6 mphMostly Cloudy
6:50 PM39.2 °F37.4 °F93 %29.33 in5.0 miWSW (250°)6.9 mphMostly Cloudy
7:20 PM39.2 °F37.4 °F93 %29.33 in1.9 miWSW (240°)6.9 mphRainRain
7:50 PM39.2 °F37.4 °F93 %29.33 in4.3 miSW (230°)4.6 mphLight Drizzle
8:20 PM39.2 °F37.4 °F93 %29.33 in6.2 miWSW (240°)4.6 mphMostly Cloudy
8:50 PM39.2 °F37.4 °F93 %29.33 in4.3 miWSW (240°)4.6 mphLight Drizzle
9:20 PM39.2 °F37.4 °F93 %29.33 in4.3 miWest (260°)4.6 mphLight Drizzle
9:50 PM39.2 °F37.4 °F93 %29.36 in4.3 miWest (260°)5.8 mphRainLight Rain
10:20 PM39.2 °F37.4 °F93 %29.36 in5.0 miWest (280°)6.9 mphMostly Cloudy
10:50 PM39.2 °F37.4 °F93 %29.39 in5.0 miWest (280°)10.4 mphMostly Cloudy
11:20 PM39.2 °F37.4 °F93 %29.39 in3.1 miWNW (300°)9.2 mphMostly Cloudy
11:50 PM37.4 °F37.4 °F100 %29.39 in4.3 miWNW (290°)6.9 mphMostly Cloudy
Hourly data recorded from EKBI, located miles away from Billund, Denmark







STORIES FROM OUR PARTNERS